Weather History for Point Salines, Grenada

Change the Weather History Date:

Thursday, March 1, 2012

  Actual Average Record
Temperature  
Mean Temperature 75 °F -  
Max Temperature 80 °F 83 °F 87 °F (2002)
Min Temperature 70 °F 74 °F 69 °F (1999)
Cooling Degree Days 10    
Growing Degree Days 25 (Base 50)    
Moisture  
Dew Point 73 °F    
Average Humidity 93    
Maximum Humidity 100    
Minimum Humidity 83    
Precipitation  
Precipitation 0.55 in - - ()
Sea Level Pressure  
Sea Level Pressure 29.96 in    
Wind  
Wind Speed 9 mph ()    
Max Wind Speed 20 mph    
Max Gust Speed -    
Visibility 6.0 miles    
Events Rain    
Averages and records for this station are not official NWS values.
T = Trace of Precipitation, MM = Missing Value Source: Averaged Metar Reports

Daily Weather History Graph

Daily Weather History Graph

Search for Another Location

Airport:

Trip Planner

Search our weather history database for the weather conditions in past years. The results will help you decide how hot, cold, wet, or windy it might be!

Date:

Astronomy

Mar. 01, 2012 Rise Set
Actual Time 6:22 AM AST 6:16 PM AST
Civil Twilight 6:00 AM AST 6:37 PM AST
Nautical Twilight 5:36 AM AST 7:02 PM AST
Astronomical Twilight 5:11 AM AST 7:27 PM AST
Moon 12:17 PM AST (3/1) 12:32 AM AST (3/1)
Length of Visible Light 12h 36m
Length of Day
11h 54m
First Quarter, 56% of the Moon is Illuminated
Mar 1
First Quarter
Mar 8
Full
Mar 14
Last Quarter
Mar 22
New
Mar 30
First Quarter

Hourly Weather History & Observations

Time (AST) Temp. Heat Index Dew Point Humidity Pressure Visibility Wind Dir Wind Speed Gust Speed Precip Events Conditions
12:00 AM 75.2 °F - 73.4 °F 94% 29.98 in 6.2 mi East 11.5 mph - N/A Rain Light Rain Showers
1:00 AM 75.2 °F - 73.4 °F 94% 29.95 in 6.2 mi East 5.8 mph - N/A Rain Light Rain Showers
2:00 AM 75 °F - 73 °F 91% 29.91 in 7 mi 2.3 mph - -   Widespread Dust
2:00 AM 75.2 °F - 73.4 °F 94% 29.92 in 6.2 mi Variable 2.3 mph - N/A   Mostly Cloudy
3:00 AM 75.2 °F - 73.4 °F 94% 29.92 in 6.2 mi ESE 11.5 mph - N/A Rain Light Rain Showers
4:00 AM 73.4 °F - 73.4 °F 100% 29.92 in 5.6 mi ESE 5.8 mph - N/A Rain Light Rain Showers
5:00 AM 74 °F - 73 °F 97% 29.91 in 7 mi ESE 12.7 mph - - Rain Light Rain
5:00 AM 73.4 °F - 73.4 °F 100% 29.89 in 6.2 mi ESE 12.7 mph - N/A   Mostly Cloudy
6:00 AM 75.2 °F - 73.4 °F 94% 29.92 in 6.2 mi ESE 13.8 mph - N/A   Mostly Cloudy
7:00 AM 73.4 °F - 71.6 °F 94% 29.95 in 6.2 mi SE 19.6 mph - N/A Rain Rain Showers
8:00 AM 74 °F - 71 °F 89% 29.99 in 6 mi SE 17.3 mph - - Rain Light Rain
8:30 AM 73.4 °F - 71.6 °F 94% 29.98 in 5.6 mi SE 17.3 mph - N/A Rain Light Rain Showers
9:00 AM 75.2 °F - 73.4 °F 94% 30.01 in 5.6 mi ESE 12.7 mph - N/A Rain Light Rain Showers
10:00 AM 75.2 °F - 71.6 °F 89% 30.01 in 5.0 mi SE 17.3 mph - N/A Rain Light Rain
11:00 AM 77.0 °F - 73.4 °F 89% 30.01 in 6.2 mi East 8.1 mph - N/A Rain Light Rain
12:00 PM 78.8 °F - 73.4 °F 83% 29.98 in 6.2 mi ESE 11.5 mph - N/A   Mostly Cloudy
1:00 PM 80.6 °F 86.2 °F 75.2 °F 84% 29.98 in 6.2 mi East 11.5 mph - N/A   Mostly Cloudy
2:00 PM 78.8 °F - 75.2 °F 89% 29.95 in 6.2 mi East 9.2 mph - N/A   Mostly Cloudy
3:00 PM 78.8 °F - 73.4 °F 83% 29.95 in 6.2 mi ESE 5.8 mph - N/A   Mostly Cloudy
4:00 PM 75.2 °F - 73.4 °F 94% 29.95 in 5.0 mi SE 15.0 mph - N/A Rain Rain Showers
5:00 PM 73.4 °F - 71.6 °F 94% 29.95 in 6.2 mi East 9.2 mph - N/A Rain Light Rain
6:00 PM 75.2 °F - 71.6 °F 89% 29.95 in 5.6 mi East 5.8 mph - N/A   Mostly Cloudy
8:00 PM 75.2 °F - 73.4 °F 94% 29.95 in 5.6 mi NE 6.9 mph - N/A Rain Light Rain
9:00 PM 75.2 °F - 73.4 °F 94% 29.98 in - North - - N/A   Mostly Cloudy
10:00 PM 75.2 °F - 73.4 °F 94% 30.01 in 6.2 mi ESE 9.2 mph - N/A Rain Light Rain
11:00 PM 74 °F - 73 °F 96% 30.02 in 5 mi SE 15.0 mph - - Rain Light Rain
11:00 PM 73.4 °F - 73.4 °F 100% 30.01 in 5.0 mi SE 15.0 mph - N/A Rain Rain